| time (UTC) | temp F | wind direction | speed MPH | gust MPH | rain 1hr in | rain 24hr in | rain mn in | humidity % | barometer mb |
| 20260510091056 | 46 | 24 | 5.0 | 10.0 | 0.00 | 0.00 | 0.00 | 72 | 1013.5 |
| 20260510090556 | 46 | 25 | 5.0 | 9.0 | 0.00 | 0.00 | 0.00 | 74 | 1013.4 |
| 20260510090056 | 46 | 26 | 5.0 | 10.0 | 0.00 | 0.00 | 0.00 | 73 | 1013.5 |
| 20260510085557 | 46 | 10 | 7.0 | 10.0 | 0.00 | 0.00 | 0.00 | 75 | 1013.4 |
| 20260510085054 | 46 | 5 | 7.0 | 10.0 | 0.00 | 0.00 | 0.00 | 79 | 1013.2 |
| 20260510084559 | 45 | 350 | 6.0 | 10.0 | 0.00 | 0.00 | 0.00 | 81 | 1013.2 |
| 20260510084052 | 44 | 360 | 5.0 | 8.0 | 0.00 | 0.00 | 0.00 | 84 | 1013.1 |
| 20260510083550 | 44 | 355 | 1.0 | 3.0 | 0.00 | 0.00 | 0.00 | 83 | 1012.9 |
| 20260510083052 | 44 | 355 | 1.0 | 3.0 | 0.00 | 0.00 | 0.00 | 83 | 1012.8 |
| 20260510082549 | 44 | 343 | 1.0 | 3.0 | 0.00 | 0.00 | 0.00 | 83 | 1012.8 |
| 20260510082051 | 44 | 343 | 0.0 | 3.0 | 0.00 | 0.00 | 0.00 | 84 | 1012.8 |
| 20260510081616 | 44 | 343 | 1.0 | 3.0 | 0.00 | 0.00 | 0.00 | 84 | 1012.8 |
| 20260510081048 | 45 | 343 | 1.0 | 3.0 | 0.00 | 0.00 | 0.00 | 83 | 1012.7 |
| 20260510080546 | 45 | 355 | 1.0 | 3.0 | 0.00 | 0.00 | 0.00 | 83 | 1012.6 |
| 20260510080045 | 46 | 45 | 2.0 | 3.0 | 0.00 | 0.00 | 0.00 | 82 | 1012.5 |
| 20260510075543 | 46 | 45 | 2.0 | 3.0 | 0.00 | 0.00 | 0.00 | 82 | 1012.4 |
| 20260510075042 | 47 | 45 | 2.0 | 3.0 | 0.00 | 0.00 | 0.00 | 82 | 1012.4 |
| 20260510074541 | 47 | 45 | 1.0 | 2.0 | 0.00 | 0.00 | 0.00 | 81 | 1012.3 |
| 20260510074041 | 48 | 45 | 1.0 | 3.0 | 0.00 | 0.00 | 0.00 | 81 | 1012.2 |
| 20260510073539 | 48 | 45 | 1.0 | 3.0 | 0.00 | 0.00 | 0.00 | 78 | 1012.3 |
| 20260510073052 | 48 | 45 | 1.0 | 3.0 | 0.00 | 0.00 | 0.00 | 77 | 1012.1 |
| 20260510072545 | 47 | 45 | 1.0 | 3.0 | 0.00 | 0.00 | 0.00 | 78 | 1012.0 |
| 20260510072040 | 47 | 45 | 1.0 | 3.0 | 0.00 | 0.00 | 0.00 | 81 | 1012.0 |
| 20260510071538 | 47 | 45 | 0.0 | 0.0 | 0.00 | 0.00 | 0.00 | 83 | 1012.0 |
| 20260510071037 | 47 | 45 | 0.0 | 0.0 | 0.00 | 0.00 | 0.00 | 84 | 1011.9 |
| 20260510070536 | 47 | 45 | 0.0 | 2.0 | 0.00 | 0.00 | 0.00 | 83 | 1011.9 |
| 20260510070038 | 48 | 45 | 0.0 | 2.0 | 0.00 | 0.00 | 0.00 | 82 | 1011.8 |
| 20260510065535 | 48 | 45 | 0.0 | 1.0 | 0.00 | 0.00 | 0.00 | 80 | 1011.7 |
| 20260510065035 | 47 | 45 | 0.0 | 3.0 | 0.00 | 0.00 | 0.00 | 77 | 1011.6 |
| 20260510064546 | 47 | 45 | 1.0 | 3.0 | 0.00 | 0.00 | 0.00 | 78 | 1011.6 |
| 20260510064032 | 47 | 45 | 2.0 | 3.0 | 0.00 | 0.00 | 0.00 | 79 | 1011.5 |
| 20260510063531 | 47 | 45 | 1.0 | 3.0 | 0.00 | 0.00 | 0.00 | 79 | 1011.4 |
| 20260510063040 | 47 | 45 | 1.0 | 2.0 | 0.00 | 0.00 | 0.00 | 79 | 1011.3 |
| 20260510062530 | 47 | 45 | 0.0 | 2.0 | 0.00 | 0.00 | 0.00 | 80 | 1011.4 |
| 20260510062029 | 47 | 45 | 1.0 | 3.0 | 0.00 | 0.00 | 0.00 | 80 | 1011.2 |
| 20260510061533 | 47 | 45 | 2.0 | 3.0 | 0.00 | 0.00 | 0.00 | 78 | 1011.2 |
| 20260510061027 | 48 | 45 | 1.0 | 3.0 | 0.00 | 0.00 | 0.00 | 76 | 1011.2 |
| 20260510060527 | 48 | 45 | 0.0 | 2.0 | 0.00 | 0.00 | 0.00 | 75 | 1011.3 |
| 20260510060040 | 48 | 45 | 0.0 | 2.0 | 0.00 | 0.00 | 0.00 | 75 | 1011.3 |
| 20260510055525 | 49 | 45 | 0.0 | 1.0 | 0.00 | 0.00 | 0.00 | 72 | 1011.3 |
| 20260510055124 | 48 | 45 | 0.0 | 2.0 | 0.00 | 0.00 | 0.00 | 72 | 1011.2 |
| 20260510054526 | 48 | 45 | 1.0 | 2.0 | 0.00 | 0.00 | 0.00 | 73 | 1011.1 |
| 20260510054024 | 48 | 45 | 1.0 | 2.0 | 0.00 | 0.00 | 0.00 | 73 | 1010.9 |
| 20260510053522 | 49 | 45 | 1.0 | 2.0 | 0.00 | 0.00 | 0.00 | 72 | 1011.0 |
| 20260510053035 | 50 | 45 | 1.0 | 2.0 | 0.00 | 0.00 | 0.00 | 73 | 1010.9 |
| 20260510052518 | 50 | 45 | 1.0 | 2.0 | 0.00 | 0.00 | 0.00 | 68 | 1010.8 |
| 20260510052020 | 50 | 45 | 1.0 | 2.0 | 0.00 | 0.00 | 0.00 | 67 | 1010.7 |
| 20260510051523 | 50 | 45 | 0.0 | 2.0 | 0.00 | 0.00 | 0.00 | 66 | 1010.8 |
| 20260510051019 | 50 | 45 | 0.0 | 0.0 | 0.00 | 0.00 | 0.00 | 67 | 1010.7 |
| 20260510050517 | 51 | 45 | 0.0 | 0.0 | 0.00 | 0.00 | 0.00 | 69 | 1010.6 |
| 20260510050015 | 51 | 45 | 0.0 | 0.0 | 0.00 | 0.00 | 0.00 | 68 | 1010.6 |
| 20260510045515 | 52 | 45 | 0.0 | 0.0 | 0.00 | 0.00 | 0.00 | 69 | 1010.5 |
| 20260510045013 | 52 | 45 | 0.0 | 0.0 | 0.00 | 0.00 | 0.00 | 65 | 1010.4 |
| 20260510044532 | 52 | 45 | 0.0 | 0.0 | 0.00 | 0.00 | 0.00 | 62 | 1010.4 |
| 20260510044012 | 52 | 45 | 0.0 | 0.0 | 0.00 | 0.00 | 0.00 | 62 | 1010.3 |
| 20260510043511 | 52 | 45 | 0.0 | 1.0 | 0.00 | 0.00 | 0.00 | 63 | 1010.2 |
| 20260510043011 | 52 | 45 | 0.0 | 1.0 | 0.00 | 0.00 | 0.00 | 65 | 1010.2 |
| 20260510042510 | 53 | 45 | 0.0 | 3.0 | 0.00 | 0.00 | 0.00 | 63 | 1010.0 |
| 20260510042009 | 53 | 45 | 1.0 | 3.0 | 0.00 | 0.00 | 0.00 | 63 | 1009.9 |
| 20260510041508 | 53 | 45 | 1.0 | 4.0 | 0.00 | 0.00 | 0.00 | 64 | 1009.7 |
| 20260510041007 | 53 | 45 | 2.0 | 4.0 | 0.00 | 0.00 | 0.00 | 63 | 1009.6 |
| 20260510040510 | 54 | 46 | 2.0 | 4.0 | 0.00 | 0.00 | 0.00 | 61 | 1009.6 |
| 20260510040007 | 54 | 51 | 2.0 | 6.0 | 0.00 | 0.00 | 0.00 | 60 | 1009.5 |
| 20260510035506 | 54 | 55 | 3.0 | 6.0 | 0.00 | 0.00 | 0.00 | 60 | 1009.4 |
| 20260510035007 | 55 | 38 | 3.0 | 6.0 | 0.00 | 0.00 | 0.00 | 60 | 1009.3 |
| 20260510034506 | 55 | 50 | 2.0 | 6.0 | 0.00 | 0.00 | 0.00 | 59 | 1009.4 |
| 20260510034006 | 55 | 65 | 3.0 | 6.0 | 0.00 | 0.00 | 0.00 | 59 | 1009.3 |
| 20260510033505 | 56 | 52 | 3.0 | 6.0 | 0.00 | 0.00 | 0.00 | 58 | 1009.2 |
| 20260510033004 | 56 | 52 | 3.0 | 7.0 | 0.00 | 0.00 | 0.00 | 58 | 1009.1 |
| 20260510032503 | 56 | 54 | 2.0 | 8.0 | 0.00 | 0.00 | 0.00 | 57 | 1008.9 |
| 20260510032002 | 57 | 62 | 4.0 | 9.0 | 0.00 | 0.00 | 0.00 | 55 | 1008.8 |
| 20260510031504 | 57 | 49 | 6.0 | 10.0 | 0.00 | 0.00 | 0.00 | 54 | 1008.7 |
| 20260510031001 | 58 | 50 | 7.0 | 10.0 | 0.00 | 0.00 | 0.00 | 53 | 1008.7 |
| 20260510030501 | 58 | 50 | 7.0 | 11.0 | 0.00 | 0.00 | 0.00 | 52 | 1008.7 |
| 20260510030113 | 59 | 48 | 6.0 | 15.0 | 0.00 | 0.00 | 0.00 | 52 | 1008.7 |
| 20260510025559 | 60 | 53 | 8.0 | 15.0 | 0.00 | 0.00 | 0.00 | 51 | 1008.6 |
| 20260510025059 | 61 | 35 | 9.0 | 14.0 | 0.00 | 0.00 | 0.00 | 57 | 1008.3 |
| 20260510024557 | 61 | 27 | 6.0 | 10.0 | 0.00 | 0.00 | 0.00 | 59 | 1008.1 |
| 20260510024056 | 62 | 336 | 6.0 | 10.0 | 0.00 | 0.00 | 0.00 | 58 | 1007.8 |
| 20260510023556 | 62 | 317 | 5.0 | 11.0 | 0.00 | 0.00 | 0.00 | 58 | 1007.8 |
| 20260510023056 | 63 | 313 | 6.0 | 11.0 | 0.00 | 0.00 | 0.00 | 56 | 1007.6 |
| 20260510022554 | 63 | 300 | 6.0 | 11.0 | 0.00 | 0.00 | 0.00 | 56 | 1007.5 |
| 20260510022054 | 63 | 294 | 6.0 | 11.0 | 0.00 | 0.00 | 0.00 | 56 | 1007.3 |
| 20260510021553 | 63 | 315 | 7.0 | 12.0 | 0.00 | 0.00 | 0.00 | 56 | 1007.2 |
| 20260510021052 | 64 | 304 | 8.0 | 12.0 | 0.00 | 0.00 | 0.00 | 55 | 1007.1 |
| 20260510020551 | 63 | 317 | 7.0 | 11.0 | 0.00 | 0.00 | 0.00 | 56 | 1007.0 |
| 20260510020051 | 64 | 306 | 6.0 | 11.0 | 0.00 | 0.00 | 0.00 | 56 | 1006.9 |
| 20260510015555 | 64 | 283 | 7.0 | 11.0 | 0.00 | 0.00 | 0.00 | 54 | 1006.9 |
| 20260510015049 | 64 | 294 | 7.0 | 12.0 | 0.00 | 0.00 | 0.00 | 54 | 1006.8 |
| 20260510014553 | 65 | 303 | 6.0 | 12.0 | 0.00 | 0.00 | 0.00 | 53 | 1006.7 |
| 20260510014051 | 65 | 280 | 8.0 | 12.0 | 0.00 | 0.00 | 0.00 | 52 | 1006.6 |
| 20260510013549 | 66 | 291 | 5.0 | 9.0 | 0.00 | 0.00 | 0.00 | 52 | 1006.5 |
| 20260510013048 | 66 | 291 | 5.0 | 11.0 | 0.00 | 0.00 | 0.00 | 48 | 1006.6 |
| 20260510012551 | 67 | 267 | 5.0 | 11.0 | 0.00 | 0.00 | 0.00 | 48 | 1006.6 |
| 20260510012048 | 67 | 277 | 6.0 | 11.0 | 0.00 | 0.00 | 0.00 | 48 | 1006.4 |
| 20260510011546 | 67 | 289 | 5.0 | 11.0 | 0.00 | 0.00 | 0.00 | 48 | 1006.3 |
| 20260510011045 | 67 | 259 | 5.0 | 14.0 | 0.00 | 0.00 | 0.00 | 46 | 1006.2 |
| 20260510010544 | 67 | 269 | 7.0 | 14.0 | 0.00 | 0.00 | 0.00 | 46 | 1006.1 |
| 20260510010044 | 67 | 297 | 6.0 | 11.0 | 0.00 | 0.00 | 0.00 | 46 | 1006.0 |
| 20260510005543 | 68 | 282 | 5.0 | 11.0 | 0.00 | 0.00 | 0.00 | 46 | 1006.0 |
| 20260510005041 | 68 | 302 | 6.0 | 13.0 | 0.00 | 0.00 | 0.00 | 46 | 1005.8 |
| 20260510004542 | 68 | 290 | 5.0 | 13.0 | 0.00 | 0.00 | 0.00 | 46 | 1005.7 |
| 20260510004040 | 68 | 277 | 6.0 | 12.0 | 0.00 | 0.00 | 0.00 | 45 | 1005.6 |
| 20260510003539 | 68 | 297 | 6.0 | 16.0 | 0.00 | 0.00 | 0.00 | 44 | 1005.5 |
| 20260510003046 | 68 | 291 | 7.0 | 16.0 | 0.00 | 0.00 | 0.00 | 44 | 1005.5 |
| 20260510002538 | 69 | 293 | 8.0 | 15.0 | 0.00 | 0.00 | 0.00 | 43 | 1005.3 |
| 20260510002038 | 69 | 263 | 8.0 | 19.0 | 0.00 | 0.00 | 0.00 | 43 | 1005.3 |
| 20260510001537 | 69 | 276 | 11.0 | 19.0 | 0.00 | 0.00 | 0.00 | 43 | 1005.2 |
| 20260510001037 | 69 | 261 | 7.0 | 16.0 | 0.00 | 0.00 | 0.00 | 44 | 1005.2 |
| 20260510000537 | 69 | 268 | 8.0 | 13.0 | 0.00 | 0.00 | 0.00 | 44 | 1005.2 |
| 20260510000042 | 69 | 268 | 6.0 | 12.0 | 0.00 | 0.00 | 0.00 | 44 | 1005.1 |
| 20260509235536 | 69 | 284 | 7.0 | 14.0 | 0.00 | 0.00 | 0.00 | 44 | 1005.0 |
| 20260509235039 | 69 | 301 | 9.0 | 15.0 | 0.00 | 0.00 | 0.00 | 43 | 1005.2 |
| 20260509234551 | 69 | 316 | 9.0 | 18.0 | 0.00 | 0.00 | 0.00 | 44 | 1005.2 |
| 20260509234039 | 69 | 284 | 10.0 | 18.0 | 0.00 | 0.00 | 0.00 | 42 | 1005.1 |
| 20260509233539 | 69 | 268 | 6.0 | 13.0 | 0.00 | 0.00 | 0.00 | 43 | 1005.1 |
| 20260509233038 | 69 | 239 | 7.0 | 18.0 | 0.00 | 0.00 | 0.00 | 42 | 1005.1 |
| 20260509232536 | 70 | 275 | 9.0 | 21.0 | 0.00 | 0.00 | 0.00 | 42 | 1005.1 |
| 20260509232036 | 70 | 254 | 12.0 | 21.0 | 0.00 | 0.00 | 0.00 | 41 | 1005.1 |
| 20260509231536 | 69 | 257 | 8.0 | 15.0 | 0.00 | 0.00 | 0.00 | 41 | 1005.0 |
| 20260509231037 | 70 | 272 | 8.0 | 18.0 | 0.00 | 0.00 | 0.00 | 42 | 1005.0 |
| 20260509230536 | 70 | 263 | 8.0 | 18.0 | 0.00 | 0.00 | 0.00 | 42 | 1005.1 |
| 20260509230039 | 70 | 305 | 7.0 | 12.0 | 0.00 | 0.00 | 0.00 | 42 | 1005.0 |
| 20260509225535 | 70 | 239 | 6.0 | 13.0 | 0.00 | 0.00 | 0.00 | 42 | 1004.8 |
| 20260509225035 | 70 | 303 | 9.0 | 13.0 | 0.00 | 0.00 | 0.00 | 40 | 1004.8 |
| 20260509224533 | 70 | 273 | 7.0 | 16.0 | 0.00 | 0.00 | 0.00 | 39 | 1004.8 |
| 20260509224032 | 71 | 311 | 7.0 | 17.0 | 0.00 | 0.00 | 0.00 | 38 | 1004.7 |
| 20260509223532 | 71 | 280 | 9.0 | 17.0 | 0.00 | 0.00 | 0.00 | 39 | 1004.6 |
| 20260509223033 | 71 | 283 | 9.0 | 18.0 | 0.00 | 0.00 | 0.00 | 36 | 1004.5 |
| 20260509222536 | 71 | 263 | 8.0 | 18.0 | 0.00 | 0.00 | 0.00 | 36 | 1004.5 |
| 20260509222035 | 71 | 247 | 11.0 | 18.0 | 0.00 | 0.00 | 0.00 | 34 | 1004.4 |
| 20260509221535 | 71 | 240 | 12.0 | 20.0 | 0.00 | 0.00 | 0.00 | 35 | 1004.4 |
| 20260509221030 | 71 | 223 | 11.0 | 20.0 | 0.00 | 0.00 | 0.00 | 36 | 1004.4 |
| 20260509220530 | 72 | 261 | 9.0 | 15.0 | 0.00 | 0.00 | 0.00 | 36 | 1004.4 |
| 20260509220030 | 72 | 279 | 10.0 | 20.0 | 0.00 | 0.00 | 0.00 | 34 | 1004.4 |
| 20260509215530 | 72 | 286 | 12.0 | 20.0 | 0.00 | 0.00 | 0.00 | 35 | 1004.4 |
| 20260509215029 | 72 | 283 | 10.0 | 19.0 | 0.00 | 0.00 | 0.00 | 33 | 1004.3 |
| 20260509214530 | 72 | 309 | 8.0 | 14.0 | 0.00 | 0.00 | 0.00 | 37 | 1004.2 |
| 20260509214029 | 72 | 261 | 7.0 | 17.0 | 0.00 | 0.00 | 0.00 | 37 | 1004.1 |
| 20260509213530 | 72 | 256 | 5.0 | 13.0 | 0.00 | 0.00 | 0.00 | 37 | 1004.2 |
| 20260509213032 | 72 | 308 | 7.0 | 13.0 | 0.00 | 0.00 | 0.00 | 35 | 1004.0 |
| 20260509212532 | 73 | 266 | 8.0 | 13.0 | 0.00 | 0.00 | 0.00 | 36 | 1004.0 |
| 20260509212031 | 73 | 277 | 8.0 | 12.0 | 0.00 | 0.00 | 0.00 | 36 | 1003.9 |
| 20260509211528 | 73 | 271 | 6.0 | 13.0 | 0.00 | 0.00 | 0.00 | 37 | 1003.8 |
| 20260509211028 | 73 | 260 | 6.0 | 13.0 | 0.00 | 0.00 | 0.00 | 34 | 1003.7 |
| 20260509210528 | 73 | 302 | 6.0 | 10.0 | 0.00 | 0.00 | 0.00 | 35 | 1003.7 |
| 20260509210034 | 73 | 294 | 4.0 | 13.0 | 0.00 | 0.00 | 0.00 | 36 | 1003.7 |
| 20260509205528 | 73 | 278 | 6.0 | 13.0 | 0.00 | 0.00 | 0.00 | 36 | 1003.7 |
| 20260509205032 | 73 | 288 | 7.0 | 13.0 | 0.00 | 0.00 | 0.00 | 35 | 1003.7 |
| 20260509204528 | 73 | 264 | 7.0 | 12.0 | 0.00 | 0.00 | 0.00 | 34 | 1003.5 |
| 20260509204028 | 73 | 271 | 7.0 | 15.0 | 0.00 | 0.00 | 0.00 | 32 | 1003.5 |
| 20260509203529 | 73 | 240 | 9.0 | 17.0 | 0.00 | 0.00 | 0.00 | 34 | 1003.6 |
| 20260509203028 | 73 | 294 | 8.0 | 19.0 | 0.00 | 0.00 | 0.00 | 34 | 1003.7 |
| 20260509202527 | 73 | 273 | 11.0 | 19.0 | 0.00 | 0.00 | 0.00 | 34 | 1003.8 |
| 20260509202028 | 73 | 257 | 11.0 | 21.0 | 0.00 | 0.00 | 0.00 | 34 | 1003.8 |
| 20260509201527 | 73 | 283 | 13.0 | 22.0 | 0.00 | 0.00 | 0.00 | 33 | 1003.8 |
| 20260509201026 | 74 | 266 | 15.0 | 22.0 | 0.00 | 0.00 | 0.00 | 33 | 1003.7 |
| 20260509200530 | 74 | 273 | 13.0 | 21.0 | 0.00 | 0.00 | 0.00 | 34 | 1003.7 |
| 20260509200026 | 74 | 249 | 8.0 | 16.0 | 0.00 | 0.00 | 0.00 | 39 | 1003.7 |
| 20260509195530 | 74 | 254 | 7.0 | 16.0 | 0.00 | 0.00 | 0.00 | 42 | 1003.8 |
| 20260509195025 | 75 | 266 | 11.0 | 16.0 | 0.00 | 0.00 | 0.00 | 39 | 1003.8 |
| 20260509194524 | 75 | 290 | 8.0 | 20.0 | 0.00 | 0.00 | 0.00 | 41 | 1003.8 |
| 20260509194024 | 75 | 253 | 12.0 | 20.0 | 0.00 | 0.00 | 0.00 | 36 | 1003.8 |
| 20260509193525 | 75 | 264 | 10.0 | 18.0 | 0.00 | 0.00 | 0.00 | 38 | 1003.8 |
| 20260509193030 | 75 | 288 | 10.0 | 17.0 | 0.00 | 0.00 | 0.00 | 40 | 1003.8 |
| 20260509192522 | 73 | 274 | 11.0 | 23.0 | 0.00 | 0.00 | 0.00 | 41 | 1003.9 |
| 20260509192025 | 73 | 254 | 11.0 | 23.0 | 0.00 | 0.00 | 0.00 | 38 | 1003.9 |
| 20260509191522 | 73 | 285 | 11.0 | 18.0 | 0.00 | 0.00 | 0.00 | 39 | 1003.9 |
| 20260509191021 | 74 | 292 | 10.0 | 20.0 | 0.00 | 0.00 | 0.00 | 38 | 1003.9 |
| 20260509190521 | 74 | 257 | 11.0 | 21.0 | 0.00 | 0.00 | 0.00 | 39 | 1003.9 |
| 20260509190023 | 74 | 278 | 11.0 | 21.0 | 0.00 | 0.00 | 0.00 | 38 | 1003.9 |
| 20260509185521 | 74 | 269 | 13.0 | 21.0 | 0.00 | 0.00 | 0.00 | 40 | 1003.9 |
| 20260509185025 | 74 | 262 | 11.0 | 21.0 | 0.00 | 0.00 | 0.00 | 38 | 1003.9 |
| 20260509184528 | 74 | 244 | 12.0 | 19.0 | 0.00 | 0.00 | 0.00 | 39 | 1003.8 |
| 20260509184020 | 73 | 250 | 14.0 | 20.0 | 0.00 | 0.00 | 0.00 | 42 | 1003.8 |
| 20260509183520 | 73 | 256 | 9.0 | 20.0 | 0.00 | 0.00 | 0.00 | 41 | 1003.8 |
| 20260509183020 | 74 | 294 | 12.0 | 20.0 | 0.00 | 0.00 | 0.00 | 41 | 1003.7 |
| 20260509182520 | 74 | 274 | 8.0 | 18.0 | 0.00 | 0.00 | 0.00 | 45 | 1003.7 |
| 20260509182018 | 74 | 277 | 11.0 | 18.0 | 0.00 | 0.00 | 0.00 | 43 | 1003.7 |
| 20260509181518 | 73 | 246 | 8.0 | 17.0 | 0.00 | 0.00 | 0.00 | 49 | 1003.6 |
| 20260509181022 | 74 | 249 | 12.0 | 17.0 | 0.00 | 0.00 | 0.00 | 48 | 1003.6 |
| 20260509180516 | 73 | 250 | 10.0 | 21.0 | 0.00 | 0.00 | 0.00 | 48 | 1003.5 |
| 20260509180015 | 73 | 260 | 11.0 | 21.0 | 0.00 | 0.00 | 0.00 | 51 | 1003.6 |
| 20260509175515 | 73 | 249 | 9.0 | 15.0 | 0.00 | 0.00 | 0.00 | 50 | 1003.7 |
| 20260509175017 | 73 | 252 | 9.0 | 17.0 | 0.00 | 0.00 | 0.00 | 55 | 1003.7 |
| 20260509174515 | 72 | 246 | 9.0 | 17.0 | 0.00 | 0.00 | 0.00 | 56 | 1003.8 |
| 20260509174019 | 72 | 205 | 11.0 | 16.0 | 0.00 | 0.00 | 0.00 | 53 | 1003.7 |
| 20260509173511 | 72 | 200 | 8.0 | 16.0 | 0.00 | 0.00 | 0.00 | 57 | 1003.9 |
| 20260509173010 | 71 | 261 | 11.0 | 16.0 | 0.00 | 0.00 | 0.00 | 58 | 1004.0 |
| 20260509172512 | 71 | 261 | 9.0 | 18.0 | 0.00 | 0.00 | 0.00 | 58 | 1004.0 |
| 20260509172009 | 71 | 222 | 11.0 | 18.0 | 0.00 | 0.00 | 0.00 | 60 | 1004.1 |
| 20260509171510 | 71 | 223 | 10.0 | 18.0 | 0.00 | 0.00 | 0.00 | 62 | 1004.1 |
| 20260509171006 | 70 | 227 | 9.0 | 16.0 | 0.00 | 0.00 | 0.00 | 60 | 1004.1 |
| 20260509170505 | 70 | 255 | 11.0 | 16.0 | 0.00 | 0.00 | 0.00 | 60 | 1004.0 |
| 20260509170005 | 70 | 262 | 7.0 | 15.0 | 0.00 | 0.00 | 0.00 | 63 | 1003.9 |
| 20260509165503 | 69 | 254 | 8.0 | 17.0 | 0.00 | 0.00 | 0.00 | 66 | 1003.9 |
| 20260509165005 | 69 | 239 | 10.0 | 17.0 | 0.00 | 0.00 | 0.00 | 65 | 1003.8 |
| 20260509164501 | 69 | 226 | 9.0 | 16.0 | 0.00 | 0.00 | 0.00 | 65 | 1003.8 |
| 20260509164001 | 69 | 259 | 8.0 | 16.0 | 0.00 | 0.00 | 0.00 | 67 | 1003.8 |
| 20260509163559 | 69 | 230 | 9.0 | 16.0 | 0.00 | 0.00 | 0.00 | 68 | 1003.8 |
| 20260509163119 | 68 | 236 | 7.0 | 15.0 | 0.00 | 0.00 | 0.00 | 67 | 1003.8 |
| 20260509162559 | 68 | 232 | 9.0 | 15.0 | 0.00 | 0.00 | 0.00 | 67 | 1003.8 |
| 20260509162059 | 68 | 269 | 8.0 | 13.0 | 0.00 | 0.00 | 0.00 | 68 | 1003.8 |
| 20260509161557 | 68 | 229 | 9.0 | 14.0 | 0.00 | 0.00 | 0.00 | 68 | 1003.9 |
| 20260509161057 | 68 | 234 | 10.0 | 18.0 | 0.00 | 0.00 | 0.00 | 68 | 1004.0 |
| 20260509160556 | 67 | 240 | 10.0 | 18.0 | 0.00 | 0.00 | 0.00 | 69 | 1004.1 |
| 20260509160057 | 67 | 220 | 10.0 | 17.0 | 0.00 | 0.00 | 0.00 | 69 | 1004.1 |
| 20260509155556 | 67 | 242 | 10.0 | 17.0 | 0.00 | 0.00 | 0.00 | 69 | 1004.1 |
| 20260509155054 | 67 | 217 | 10.0 | 17.0 | 0.00 | 0.00 | 0.00 | 69 | 1004.0 |
| 20260509154553 | 66 | 254 | 9.0 | 19.0 | 0.00 | 0.00 | 0.00 | 70 | 1004.1 |
| 20260509154052 | 66 | 234 | 9.0 | 21.0 | 0.00 | 0.00 | 0.00 | 72 | 1004.1 |
| 20260509153552 | 66 | 201 | 12.0 | 21.0 | 0.00 | 0.00 | 0.00 | 71 | 1004.2 |
| 20260509153051 | 66 | 225 | 11.0 | 17.0 | 0.00 | 0.00 | 0.00 | 71 | 1004.2 |
| 20260509152553 | 65 | 202 | 10.0 | 15.0 | 0.00 | 0.00 | 0.00 | 72 | 1004.2 |
| 20260509152051 | 65 | 258 | 10.0 | 15.0 | 0.00 | 0.00 | 0.00 | 72 | 1004.2 |
| 20260509151547 | 65 | 221 | 9.0 | 16.0 | 0.00 | 0.00 | 0.00 | 74 | 1004.3 |
| 20260509151051 | 64 | 221 | 10.0 | 16.0 | 0.00 | 0.00 | 0.00 | 73 | 1004.3 |
| 20260509150546 | 64 | 229 | 10.0 | 16.0 | 0.00 | 0.00 | 0.00 | 74 | 1004.3 |
| 20260509145545 | 64 | 265 | 10.0 | 17.0 | 0.00 | 0.00 | 0.00 | 73 | 1004.3 |
| 20260509145049 | 64 | 220 | 10.0 | 17.0 | 0.00 | 0.00 | 0.00 | 74 | 1004.2 |
| 20260509144634 | 63 | 257 | 10.0 | 17.0 | 0.00 | 0.00 | 0.00 | 75 | 1004.1 |
| 20260509144047 | 63 | 234 | 10.0 | 17.0 | 0.00 | 0.00 | 0.00 | 75 | 1004.0 |
| 20260509143541 | 63 | 238 | 10.0 | 17.0 | 0.00 | 0.00 | 0.00 | 76 | 1003.9 |
| 20260509143047 | 62 | 226 | 10.0 | 16.0 | 0.00 | 0.00 | 0.00 | 74 | 1004.0 |
| 20260509142543 | 62 | 229 | 9.0 | 17.0 | 0.00 | 0.00 | 0.00 | 76 | 1004.0 |
| 20260509142039 | 62 | 246 | 11.0 | 17.0 | 0.00 | 0.00 | 0.00 | 75 | 1004.0 |
| 20260509141543 | 62 | 217 | 10.0 | 18.0 | 0.00 | 0.00 | 0.00 | 78 | 1003.8 |
| 20260509141037 | 61 | 243 | 11.0 | 18.0 | 0.00 | 0.00 | 0.00 | 76 | 1003.9 |
| 20260509140537 | 62 | 221 | 11.0 | 19.0 | 0.00 | 0.00 | 0.00 | 80 | 1003.9 |
| 20260509140036 | 61 | 257 | 10.0 | 19.0 | 0.00 | 0.00 | 0.00 | 80 | 1004.0 |
| 20260509135535 | 61 | 207 | 9.0 | 16.0 | 0.00 | 0.00 | 0.00 | 81 | 1004.1 |
| 20260509135034 | 60 | 200 | 12.0 | 16.0 | 0.00 | 0.00 | 0.00 | 82 | 1004.1 |
| 20260509134534 | 59 | 235 | 11.0 | 16.0 | 0.00 | 0.00 | 0.00 | 82 | 1004.2 |
| 20260509134033 | 59 | 217 | 10.0 | 15.0 | 0.00 | 0.00 | 0.00 | 84 | 1004.2 |
| 20260509133534 | 59 | 219 | 8.0 | 15.0 | 0.00 | 0.00 | 0.00 | 87 | 1004.1 |
| 20260509133030 | 58 | 241 | 7.0 | 15.0 | 0.00 | 0.00 | 0.00 | 88 | 1004.1 |
| 20260509132528 | 57 | 226 | 11.0 | 14.0 | 0.00 | 0.00 | 0.00 | 87 | 1004.2 |
| 20260509132027 | 57 | 213 | 10.0 | 15.0 | 0.00 | 0.00 | 0.00 | 88 | 1004.3 |
| 20260509131533 | 57 | 198 | 7.0 | 14.0 | 0.00 | 0.00 | 0.00 | 90 | 1004.3 |
| 20260509131025 | 56 | 225 | 10.0 | 14.0 | 0.00 | 0.00 | 0.00 | 90 | 1004.4 |
| 20260509130524 | 56 | 204 | 8.0 | 14.0 | 0.00 | 0.00 | 0.00 | 90 | 1004.5 |
| 20260509130024 | 56 | 237 | 8.0 | 13.0 | 0.00 | 0.00 | 0.00 | 91 | 1004.4 |
| 20260509125522 | 55 | 211 | 8.0 | 13.0 | 0.00 | 0.00 | 0.00 | 91 | 1004.4 |
| 20260509125023 | 55 | 211 | 8.0 | 13.0 | 0.00 | 0.00 | 0.00 | 91 | 1004.5 |
| 20260509124522 | 55 | 248 | 6.0 | 10.0 | 0.00 | 0.00 | 0.00 | 92 | 1004.7 |
| 20260509124021 | 55 | 232 | 6.0 | 11.0 | 0.00 | 0.00 | 0.00 | 93 | 1004.7 |
| 20260509123520 | 54 | 222 | 5.0 | 10.0 | 0.00 | 0.00 | 0.00 | 93 | 1004.6 |
| 20260509123020 | 54 | 223 | 6.0 | 11.0 | 0.00 | 0.00 | 0.00 | 94 | 1004.4 |
| 20260509122519 | 54 | 175 | 7.0 | 11.0 | 0.00 | 0.00 | 0.00 | 94 | 1004.1 |
| 20260509122019 | 53 | 184 | 8.0 | 11.0 | 0.00 | 0.00 | 0.00 | 94 | 1003.9 |
| 20260509121524 | 53 | 166 | 7.0 | 10.0 | 0.00 | 0.00 | 0.00 | 94 | 1003.8 |
| 20260509121017 | 53 | 178 | 7.0 | 11.0 | 0.00 | 0.00 | 0.00 | 95 | 1003.8 |
| 20260509120517 | 53 | 188 | 7.0 | 11.0 | 0.00 | 0.00 | 0.00 | 94 | 1003.8 |
| 20260509120017 | 52 | 185 | 8.0 | 11.0 | 0.00 | 0.00 | 0.00 | 94 | 1003.7 |
| 20260509115516 | 52 | 193 | 7.0 | 9.0 | 0.00 | 0.01 | 0.00 | 94 | 1003.8 |
| 20260509115016 | 52 | 169 | 6.0 | 9.0 | 0.00 | 0.01 | 0.00 | 94 | 1003.8 |
| 20260509114516 | 52 | 180 | 6.0 | 12.0 | 0.00 | 0.01 | 0.00 | 95 | 1003.8 |
| 20260509114016 | 52 | 176 | 8.0 | 12.0 | 0.00 | 0.01 | 0.00 | 95 | 1003.7 |
| 20260509113515 | 52 | 189 | 9.0 | 13.0 | 0.00 | 0.01 | 0.00 | 94 | 1003.7 |
| 20260509113015 | 52 | 182 | 7.0 | 11.0 | 0.00 | 0.01 | 0.00 | 94 | 1003.8 |
| 20260509112515 | 52 | 207 | 8.0 | 11.0 | 0.00 | 0.01 | 0.00 | 94 | 1003.8 |
| 20260509112015 | 52 | 188 | 7.0 | 15.0 | 0.00 | 0.01 | 0.00 | 94 | 1003.9 |
| 20260509111514 | 52 | 189 | 10.0 | 15.0 | 0.00 | 0.01 | 0.00 | 94 | 1003.7 |
| 20260509111015 | 52 | 200 | 8.0 | 13.0 | 0.00 | 0.01 | 0.00 | 94 | 1003.8 |
| 20260509110514 | 52 | 209 | 8.0 | 13.0 | 0.00 | 0.01 | 0.00 | 94 | 1003.8 |
| 20260509110014 | 51 | 200 | 7.0 | 13.0 | 0.00 | 0.01 | 0.00 | 94 | 1003.8 |
| 20260509105514 | 51 | 197 | 8.0 | 13.0 | 0.00 | 0.05 | 0.00 | 94 | 1003.8 |
| 20260509105015 | 51 | 185 | 8.0 | 12.0 | 0.00 | 0.05 | 0.00 | 94 | 1003.6 |
| 20260509104529 | 51 | 190 | 8.0 | 12.0 | 0.00 | 0.05 | 0.00 | 94 | 1003.8 |
| 20260509104013 | 51 | 205 | 8.0 | 13.0 | 0.00 | 0.05 | 0.00 | 94 | 1003.8 |
| 20260509103512 | 51 | 181 | 8.0 | 13.0 | 0.00 | 0.05 | 0.00 | 94 | 1003.9 |
| 20260509103012 | 51 | 192 | 7.0 | 13.0 | 0.00 | 0.05 | 0.00 | 94 | 1003.9 |
| 20260509102511 | 50 | 201 | 9.0 | 13.0 | 0.00 | 0.05 | 0.00 | 94 | 1003.9 |
| 20260509102011 | 49 | 181 | 7.0 | 9.0 | 0.00 | 0.05 | 0.00 | 94 | 1003.9 |
| 20260509101513 | 49 | 170 | 5.0 | 7.0 | 0.00 | 0.05 | 0.00 | 93 | 1003.9 |
| 20260509101011 | 48 | 170 | 4.0 | 6.0 | 0.00 | 0.05 | 0.00 | 93 | 1003.9 |
| 20260509100508 | 48 | 169 | 4.0 | 6.0 | 0.00 | 0.05 | 0.00 | 92 | 1003.9 |
| 20260509100015 | 49 | 165 | 4.0 | 6.0 | 0.00 | 0.05 | 0.00 | 93 | 1003.9 |
| 20260509095506 | 49 | 177 | 4.0 | 7.0 | 0.00 | 0.09 | 0.00 | 92 | 1004.0 |
| 20260509095006 | 50 | 177 | 4.0 | 8.0 | 0.00 | 0.09 | 0.00 | 92 | 1004.1 |
| 20260509094516 | 50 | 191 | 5.0 | 8.0 | 0.00 | 0.09 | 0.00 | 93 | 1004.2 |
| 20260509094005 | 50 | 188 | 5.0 | 7.0 | 0.00 | 0.09 | 0.00 | 93 | 1004.2 |
| 20260509093505 | 50 | 184 | 5.0 | 7.0 | 0.00 | 0.09 | 0.00 | 94 | 1004.2 |
| 20260509093005 | 49 | 188 | 4.0 | 6.0 | 0.00 | 0.09 | 0.00 | 93 | 1004.2 |
| 20260509092504 | 49 | 169 | 4.0 | 6.0 | 0.00 | 0.09 | 0.00 | 93 | 1004.2 |
| 20260509092004 | 49 | 182 | 4.0 | 6.0 | 0.00 | 0.09 | 0.00 | 93 | 1004.2 |
| 20260509091503 | 49 | 167 | 3.0 | 6.0 | 0.00 | 0.09 | 0.00 | 92 | 1004.2 |